CAPE
0 0 0 0 0 0 0 0 0 0 0 0 0 0 0 0 0 0 0 0 0 0 0 0 0 0 0 0 0 0 0 0 0 0 0 0 0 0
0 0 0 0 0 0 0 0 0 0 0 0 0 0 0 0 0 0 0 0 0 0 0 0 0 0 0 0 0 0 0 0 0 0 0 0 0 0
0 0 0 0 0 0 0 0 0 0 0 0 0 0 0 0 0 0 0 0 0 0 0 0 0 0 0 0 0 0 0 0 0 0 0 0 0 0
0 0 0 0 0 0 0 0 0 0 0 0 0 0 0 0 0 0 0 0 0 0 0 0 0 0 0 0 0 0 0 0 0 0 0 0 0 0
0 0 0 0 0 0 0 0 0 0 0 0 0 0 0 0 0 0 0 0 0 0 0 0 0 0 0 0 0 0 0 0 0 0 0 0 0 0
0 0 0 0 0 0 0 0 0 0 0 0 0 0 0 0 0 0 0 0 0 0 0 0 0 0 0 0 0 0 0 0 0 0 0 0 0 0
0 0 0 0 0 0 0 0 0 0 0 0 0 0 0 0 0 0 0 0 0 0 0 0 0 0 0 0 0 0 0 0 0 0 0 0 0 0
0 0 0 0 0 0 0 0 0 0 0 0 0 0 0 0 0 0 0 0 0 0 0 0 0 0 0 0 0 0 0 0 0 0 0 0 0 0
0 0 0 0 0 0 0 0 0 0 0 0 0 0 0 0 0 0 0 0 0 0 0 0 0 0 0 0 0 0 0 0 0 0 0 0 0 0
0 0 0 0 0 0 0 0 0 0 0 0 0 0 0 0 0 0 0 0 0 0 0 0 0 0 0 0 0 0 0 0 0 0 0 0 0 0
0 0 0 0 0 0 0 0 0 0 0 0 0 0 0 0 0 0 0 0 0 0 0 0 0 0 0 0 0 0 0 0 0 0 0 0 0 0
0 0 0 0 0 0 0 0 0 0 0 0 0 0 0 0 0 0 0 0 0 0 0 0 0 0 0 0 0 0 0 0 0 0 0 0 0 0
0 0 0 0 0 0 0 0 0 0 0 0 0 0 0 0 0 0 0 0 0 0 0 0 0 0 0 0 0 0 0 0 0 0 0 0 0 0
0 0 0 0 0 0 0 0 0 0 0 0 0 0 0 0 0 0 0 0 0 0 0 0 0 0 0 0 0 0 0 0 0 0 0 0 0 0
0 0 0 0 0 0 0 0 0 0 0 0 0 0 0 0 0 0 0 0 0 0 0 0 0 0 0 0 0 0 0 0 0 0 0 2 0 0
0 0 0 0 0 0 0 0 0 0 0 0 0 0 0 0 0 0 0 0 0 0 0 0 0 0 0 0 0 0 0 0 0 0 0 0 0 0
0 0 0 0 0 0 0 0 0 0 0 0 0 0 0 0 0 0 0 0 0 0 0 0 0 0 0 0 0 0 0 0 0 0 0 0 0 0
0 0 0 0 0 0 0 1 0 0 0 0 0 0 0 0 0 0 0 0 0 0 0 0 0 0 0 0 0 0 0 0 0 0 1 1 0 0
0 0 1 1 1 2 2 1 0 0 0 0 0 0 0 0 0 0 0 0 0 0 0 0 0 0 0 0 0 0 0 0 0 0 0 1 1 0
0 2 1 1 2 2 3 2 1 0 0 1 0 0 0 0 0 0 0 0 0 0 0 0 0 0 0 0 1 0 0 0 0 1 1 1 0 0
1 0 1 2 2 2 2 1 1 1 1 0 0 0 0 0 0 0 0 0 0 0 0 0 0 0 0 0 0 0 0 0 0 0 0 1 1 0
1 1 2 2 2 1 1 1 1 0 0 0 0 0 0 0 0 0 0 0 0 0 0 0 0 0 0 1 1 0 0 0 0 0 0 0 0 1
2 3 3 2 2 2 1 1 0 0 0 0 0 0 0 0 0 0 0 0 0 0 0 0 0 0 0 0 0 0 0 0 0 0 0 0 0 0
CIN
0 0 0 0 0 0 0 0 0 0 0 0 0 0 0 0 0 0 0 0 0 0 0 0 0 0 0 0 0 0 0 0 0 0 0 0 0 0
0 0 0 0 0 0 0 0 0 0 0 0 0 0 0 0 0 0 0 0 0 0 0 0 0 0 0 0 0 0 0 0 0 0 0 0 0 0
0 0 0 0 0 0 0 0 0 0 0 0 0 0 0 0 0 0 0 0 0 0 0 0 0 0 0 0 0 0 0 0 0 0 0 0 0 0
0 0 0 0 0 0 0 0 0 0 0 0 0 0 0 0 0 0 0 0 0 0 0 0 0 0 0 0 0 0 0 0 0 0 0 0 0 0
0 0 0 0 0 0 0 0 0 0 0 0 0 0 0 0 0 0 0 0 0 0 0 0 0 0 0 0 0 0 0 0 0 0 0 0 0 0
0 0 0 0 0 0 0 0 0 0 0 0 0 0 0 0 0 0 0 0 0 0 0 0 0 0 0 0 0 0 0 0 0 0 0 0 0 0
0 0 0 0 0 0 0 0 0 0 0 0 0 0 0 0 0 0 0 0 0 0 0 0 0 0 0 0 0 0 0 0 0 0 0 0 0 0
0 0 0 0 0 0 0 0 0 0 0 0 0 0 0 0 0 0 0 0 0 0 0 0 0 0 0 0 0 0 0 0 0 0 0 0 0 0
0 0 0 0 0 0 0 0 0 0 0 0 0 0 0 0 0 0 0 0 0 0 0 0 0 0 0 0 0 0 0 0 0 0 0 0 0 0
0 0 0 0 0 0 0 0 0 0 0 0 0 0 0 0 0 0 0 0 0 0 0 0 0 0 0 0 0 0 0 0 0 0 0 0 0 0
0 0 0 0 0 0 0 0 0 0 0 0 0 0 0 0 0 0 0 0 0 0 0 0 0 0 0 0 0 0 0 0 0 0 0 0 0 0
0 0 0 0 0 0 0 0 0 0 0 0 0 0 0 0 0 0 0 0 0 0 0 0 0 0 0 0 0 0 0 0 0 0 0 0 0 0
0 0 0 0 0 0 0 0 0 0 0 0 0 0 0 0 0 0 0 0 0 0 0 0 0 0 0 0 0 0 0 0 0 0 0 0 0 0
0 0 0 0 0 0 0 0 0 0 0 0 0 0 0 0 0 0 0 0 0 0 0 0 0 0 0 0 0 0 0 0 0 0 0 0 0 0
0 0 0 0 0 0 0 0 0 0 0 0 0 0 0 0 0 0 0 0 0 0 0 0 0 0 0 0 0 0 0 0 0 0 0 0 0 0
0 0 0 0 0 0 0 0 0 0 0 0 0 0 0 0 0 0 0 0 0 0 0 0 0 0 0 0 0 0 0 0 0 0 0 0 0 0
0 0 0 0 0 0 0 0 0 0 0 0 0 0 0 0 0 0 0 0 0 0 0 0 0 0 0 0 0 0 0 0 0 0 0 0 0 0
0 0 0 0 0 0 0 0 0 0 0 0 0 0 0 0 0 0 0 0 0 0 0 0 0 0 0 0 0 0 0 0 0 0 0 0 0 0
0 0 0 0 0 0 0 0 0 0 0 0 0 0 0 0 0 0 0 0 0 0 0 0 0 0 0 0 0 0 0 0 0 0 0 0 0 0
0 0 0 0 0 0 0 0 0 0 0 0 0 0 0 0 0 0 0 0 0 0 0 0 0 0 0 0 0 0 0 0 0 0 0 0 0 0
0 0 0 0 0 0 0 0 0 0 0 0 0 0 0 0 0 0 0 0 0 0 0 0 0 0 0 0 0 0 0 0 0 0 0 0 0 0
0 0 0 0 0 0 0 0 0 0 0 0 0 0 0 0 0 0 0 0 0 0 0 0 0 0 0 0 0 0 0 0 0 0 0 0 0 0
0 0 0 0 0 0 0 0 0 0 0 0 0 0 0 0 0 0 0 0 0 0 0 0 0 0 0 0 0 0 0 0 0 0 0 0 0 0
Wind_Speed
25 24 23 25 22 20 20 19 21 24 24 21 19 15 15 16 16 15 18 22 26 28 31 32 34 36 37 38 39 40 40 41 42 42 42 42 42 42
25 23 23 27 25 22 21 22 22 23 25 22 20 18 15 17 17 18 20 24 27 29 30 32 34 36 37 37 40 41 42 42 43 42 43 43 43 42
27 24 24 26 27 26 24 23 24 23 25 25 22 19 19 19 20 20 22 24 27 28 30 33 35 35 35 38 41 41 41 42 42 43 44 42 42 44
28 26 25 27 28 27 27 25 25 24 25 27 23 23 22 21 23 23 23 25 27 28 31 34 34 33 37 39 41 42 43 44 44 43 42 41 43 44
28 27 26 26 29 30 29 28 27 26 25 26 26 24 24 24 26 26 27 27 28 30 32 32 30 35 39 40 40 42 44 45 42 42 42 43 44 45
27 26 27 29 31 31 31 29 27 27 27 28 28 27 25 26 27 28 31 29 32 31 32 29 33 37 38 38 39 42 42 42 42 43 44 45 45 46
28 29 30 32 33 32 31 30 29 29 29 28 30 29 27 27 29 29 32 34 35 31 32 33 37 38 37 37 39 41 43 41 43 43 45 46 47 48
28 28 29 30 33 31 31 31 30 29 29 29 31 31 29 28 27 31 33 35 37 30 36 40 36 38 37 38 40 42 40 42 42 44 47 49 49 49
30 30 29 28 28 29 31 31 31 30 28 27 29 29 29 27 27 31 32 33 35 35 38 40 38 40 39 41 42 41 39 41 43 47 50 48 50 51
26 28 28 27 26 25 27 28 29 28 28 28 29 30 28 25 27 28 29 32 34 35 33 39 38 41 42 41 38 37 39 42 44 48 48 50 50 52
25 23 25 26 25 23 25 25 27 29 27 27 28 26 24 24 24 25 28 32 37 35 33 37 39 47 42 38 34 36 42 43 45 48 49 49 50 53
27 26 25 25 25 23 25 27 29 27 25 24 23 22 22 23 23 25 27 32 34 38 32 40 43 44 46 35 36 42 41 43 46 50 47 48 49 51
31 30 28 25 25 24 23 24 25 23 22 22 22 23 24 25 25 25 26 28 32 34 34 38 39 41 38 43 42 42 41 48 47 47 46 46 49 52
31 31 29 24 23 23 22 23 22 20 21 21 22 23 24 25 25 25 27 27 28 31 34 35 36 38 41 47 46 45 47 47 47 47 48 51 49 51
21 23 22 22 22 23 21 19 19 20 21 23 24 23 23 23 24 25 26 28 31 31 31 31 32 35 37 41 45 49 54 49 45 47 50 50 52 53
20 21 20 18 18 21 18 18 19 21 22 23 22 21 21 21 23 25 27 30 32 31 30 30 32 34 37 38 41 47 46 47 51 51 51 52 49 49
19 18 19 18 18 18 19 18 17 19 20 18 18 19 21 22 23 25 27 29 31 34 35 34 34 33 33 35 40 40 45 47 47 52 55 54 50 51
19 18 18 18 19 18 17 17 17 17 17 16 16 17 20 22 23 24 25 27 31 33 35 35 37 38 36 32 30 41 44 47 49 49 50 54 57 53
18 17 17 17 17 16 16 15 15 14 13 13 14 16 18 20 21 24 25 28 30 31 33 34 35 37 42 44 37 35 45 47 49 49 49 50 53 51
16 16 16 15 14 13 13 13 12 12 13 13 15 15 16 19 21 23 25 28 30 31 32 32 34 36 39 41 42 41 41 45 47 50 51 49 42 41
16 15 14 14 14 13 13 12 12 12 13 14 14 15 17 20 22 23 25 27 29 30 33 33 34 35 34 34 38 41 42 41 43 47 50 52 51 48
16 16 16 15 14 14 13 12 13 13 13 14 15 16 17 20 22 23 25 28 29 31 32 33 34 34 35 37 39 42 45 44 45 42 40 38 40 42
17 17 16 16 15 13 12 12 13 15 14 16 16 16 18 20 21 22 25 27 29 31 32 34 33 33 35 36 40 42 44 46 47 49 45 41 35 33
Wind_Direction
247 250 257 262 269 275 280 284 286 287 292 298 307 313 316 319 320 324 324 326 326 329 329 331 332 331 331 331 331 330 331 330 330 330 330 329 329 329
248 251 256 260 265 272 276 281 284 288 291 301 304 313 317 319 320 319 321 323 324 327 329 331 331 332 332 332 331 330 330 330 330 330 329 329 329 329
248 249 255 260 263 268 274 279 281 287 289 297 303 308 311 313 315 317 319 321 323 327 328 329 330 331 333 332 331 331 331 330 331 330 329 330 329 329
246 250 252 259 262 267 271 276 280 283 288 291 298 301 305 310 310 313 317 320 321 325 326 327 328 331 332 332 331 331 331 330 330 330 331 330 329 329
249 250 251 256 260 265 269 273 278 283 286 290 295 301 304 306 306 309 313 317 319 322 324 327 329 330 330 331 331 332 331 330 332 333 332 330 330 329
252 251 255 256 260 263 267 270 275 279 284 287 292 296 301 303 305 308 309 313 316 321 323 327 328 328 330 331 331 332 332 333 333 332 332 331 330 329
253 257 260 260 262 263 265 269 271 275 280 285 288 293 297 300 302 307 308 311 314 318 320 323 325 327 330 331 331 332 331 331 332 332 331 330 330 328
257 260 263 263 264 264 266 268 269 272 277 283 285 289 294 298 301 303 306 310 312 319 320 319 325 326 328 330 330 329 330 331 332 332 331 330 329 329
261 263 264 267 266 268 268 269 270 272 278 279 284 289 294 296 300 301 305 309 311 316 319 319 324 324 327 328 329 329 330 332 332 331 330 330 329 329
264 266 267 268 269 268 269 270 272 274 276 281 284 290 292 295 298 303 307 310 313 316 321 320 325 324 325 326 329 330 332 332 331 331 331 330 330 330
267 270 269 271 271 270 272 271 274 278 280 283 288 290 293 296 300 306 308 311 312 317 322 322 326 323 326 327 331 331 330 330 332 331 330 331 332 331
268 270 269 274 274 270 274 275 277 278 277 281 285 289 295 298 302 307 309 311 314 316 323 322 324 328 325 328 331 331 332 332 333 332 333 333 334 334
265 267 272 271 276 276 276 278 278 280 277 278 281 287 293 296 301 307 311 313 313 315 321 325 324 326 326 326 329 332 334 333 334 335 335 336 336 335
267 268 270 269 273 275 275 282 282 282 279 279 280 285 290 295 301 306 310 314 315 316 320 323 323 325 325 325 326 331 333 334 336 336 336 336 337 336
271 272 272 271 270 275 275 281 285 284 281 279 280 286 291 297 303 308 312 314 316 320 322 325 325 326 327 325 325 329 332 335 336 338 337 337 338 339
275 277 278 277 274 278 274 278 283 286 286 285 283 288 294 300 304 309 312 315 318 321 325 327 326 327 326 327 328 329 334 335 335 337 337 337 340 340
271 274 276 277 277 279 279 283 286 290 290 288 288 290 294 299 305 311 314 317 318 320 323 326 328 328 328 329 330 334 335 335 337 337 337 337 340 342
268 268 269 270 274 276 276 280 286 289 290 292 294 296 298 302 307 312 317 319 320 322 324 327 329 331 333 336 336 334 337 337 338 339 340 339 338 344
268 268 271 273 275 275 278 281 286 291 294 296 296 300 304 308 311 314 318 320 321 324 326 330 331 332 331 331 336 343 338 338 338 340 341 341 339 341
268 270 272 274 274 275 278 282 288 293 299 302 306 307 308 311 313 316 319 321 324 325 327 331 333 334 333 333 333 337 341 339 340 340 341 341 341 340
266 267 271 273 275 276 278 281 287 294 299 303 307 308 311 312 314 319 322 323 325 327 327 330 333 334 335 337 336 337 340 344 344 341 342 342 345 348
266 268 272 273 273 272 274 278 285 291 296 300 303 307 311 313 314 318 321 323 326 327 328 330 334 337 338 338 338 339 338 343 345 349 351 349 348 348
266 268 271 274 274 274 274 278 284 290 294 297 301 306 310 313 316 318 321 324 325 327 328 330 334 338 338 340 339 340 341 344 345 346 353 355 355 351